This is the latest recevied weather packets stored in our database for station/object WX2NJ-13. If no packets are shown the sender has not sent any weather packets the latest 10 day(s).
| Time | Temp. | Humidity | Pressure | Rain* | Wind** | Luminosity | Snow |
|---|---|---|---|---|---|---|---|
| 1778056427 | 16.11° C | 83% | 1011.8 hPa | 0 mm | 0 m/s | - | - |
| 1778056129 | 16.11° C | 83% | 1011.8 hPa | 0 mm | 0.89 m/s, 136° | - | - |
| 1778055827 | 16.11° C | 82% | 1011.8 hPa | 0 mm | 1.34 m/s, 44° | - | - |
| 1778055529 | 16.11° C | 82% | 1011.8 hPa | 0 mm | 0.45 m/s, 190° | - | - |
| 1778055230 | 16.11° C | 82% | 1011.8 hPa | 0 mm | 0.89 m/s, 156° | - | - |
| 1778054929 | 16.11° C | 82% | 1011.8 hPa | 0 mm | 0.89 m/s, 208° | - | - |
| 1778054630 | 16.11° C | 82% | 1011.9 hPa | 0 mm | 0 m/s | - | - |
| 1778054331 | 16.11° C | 81% | 1011.9 hPa | 0 mm | 0 m/s | - | - |
| 1778054030 | 16.11° C | 81% | 1011.9 hPa | 0 mm | 1.34 m/s, 176° | - | - |
| 1778053732 | 16.11° C | 81% | 1011.8 hPa | 0 mm | 0.45 m/s, 170° | - | - |
| 1778053433 | 16.11° C | 81% | 1011.9 hPa | 0 mm | 0.89 m/s, 184° | - | - |
| 1778053131 | 16.11° C | 81% | 1011.9 hPa | 0 mm | 1.79 m/s, 205° | - | - |
| 1778052833 | 16.11° C | 81% | 1012 hPa | 0 mm | 0.89 m/s, 158° | - | - |
| 1778052534 | 16.11° C | 80% | 1012.1 hPa | 0 mm | 0 m/s | - | - |
| 1778052233 | 16.11° C | 80% | 1012.1 hPa | 0 mm | 1.34 m/s, 179° | - | - |
| 1778051934 | 16.11° C | 80% | 1012.1 hPa | 0 mm | 0 m/s | - | - |
| 1778051636 | 16.11° C | 80% | 1012.2 hPa | 0 mm | 1.34 m/s, 149° | - | - |
| 1778051334 | 16.11° C | 80% | 1012.2 hPa | 0 mm | 1.34 m/s, 204° | - | - |
| 1778051036 | 16.11° C | 80% | 1012.1 hPa | 0 mm | 0.89 m/s, 125° | - | - |
| 1778050737 | 16.11° C | 79% | 1012.1 hPa | 0 mm | 0.89 m/s, 193° | - | - |
| 1778050436 | 16.11° C | 79% | 1012.1 hPa | 0 mm | 0.45 m/s, 142° | - | - |
| 1778050137 | 16.67° C | 79% | 1012.1 hPa | 0 mm | 1.34 m/s, 176° | - | - |
| 1778049839 | 16.67° C | 79% | 1012 hPa | 0 mm | 1.34 m/s, 174° | - | - |
| 1778049537 | 16.67° C | 78% | 1012 hPa | 0 mm | 1.34 m/s, 184° | - | - |
| 1778049239 | 16.67° C | 78% | 1012.1 hPa | 0 mm | 1.34 m/s, 181° | - | - |
* Rain latest hour (hover to see other rain measurements)
** Current wind speed in m/s (hover to see current wind gust speed)